User: anonymous   Login
Location: Ostrava
(49.8330°N, 18.2830°E)
Time: 02:47:52
(UTC+01:00)
Language:

Cosmos 1263 Rocket - Orbit

View from above orbital plane
View from above orbital plane
View from above satellite
View from above satellite

Ground track
Ground track

The orbit data is extracted from the following two-line orbital elements,

1 12389U 81033B   15086.02025025  .00168055  67294-5  10818-2 0  9992
2 12389 082.8637 189.2659 0113599 158.7192 253.4449 15.67431661753422
Epoch (UTC): 27 March 2015 00:29:09
Eccentricity: 0.0113599
inclination: 82.8637°
perigee height: 289 km
apogee height: 443 km
right ascension of ascending node: 189.2659°
argument of perigee: 158.7192°
revolutions per day: 15.67431661
mean anomaly at epoch: 253.4449°
orbit number at epoch: 75342

The dashed part of the orbit path shows where the satellite is in the earth's shadow,  

DLR